sat.trackr.live / text

‹ back to catalog

2023-072E

NORAD 56747 · 2023-072E

PAYLOAD ACTIVE UNKNOWN

§ Identity

Operator
Country
SKOR
Launch date
2023-05-25
Launch site
NSC
Launch vehicle
Mass (kg)
RCS (m²)

External: N2YO · Heavens-Above · Gunter

§ Orbital elements

Epoch: 2026-09-21T22:57:25.048224Z

Period
92.76 min
Inclination
97.4939°
Eccentricity
0.0002818
Mean motion
15.52408724 rev/d
Perigee alt
407.8 km
Apogee alt
411.6 km
Semi-major
6,787.8 km
B*
3.5533e-4
RAAN
118.1276°
Arg perigee
26.2481°
Mean anomaly
333.8913°
Rev number
18,537

§ Raw data

2023-072E1 56747U 23072E   26264.95653991  .00021621  00000+0  35533-3 0  99932 56747  97.4939 118.1276 0002818  26.2481 333.8913 15.52408724185372

JSON: /api/v1/satellites/56747 · /tle

For live sub-satellite position, see the globe view (requires WebGL).

§ Visibility from observer

Set your observer location to see the next 7 days of passes ≥ 10°. The values pass through the URL so the page stays shareable.

No JS? Fill the form by hand. The geolocation button needs JavaScript.